Alturas, CA

5:42 AM PDT on October 23, 2017 (GMT -0700)
Alturas Municipal

Weather History for KAAT - December, 2012

Change the Weather History Date:

Saturday, December 29, 2012

  Actual Average Record
Temperature  
Mean Temperature 26 °F 29 °F  
Max Temperature 30 °F 40 °F 67 °F (1917)
Min Temperature 22 °F 18 °F -15 °F (1916)
Degree Days  
Heating Degree Days 39 36  
Month to date heating degree days 1029 1027  
Since 1 July heating degree days 2443 2837  
Cooling Degree Days 0 0  
Month to date cooling degree days 0 0  
Year to date cooling degree days 224 156  
Moisture  
Dew Point 23 °F    
Average Humidity 87    
Maximum Humidity 92    
Minimum Humidity 81    
Precipitation  
Precipitation T in 0.05 in 0.61 in (1995)
Month to date precipitation 2.67 1.61  
Year to date precipitation 10.29 14.07  
Sea Level Pressure  
Sea Level Pressure 30.07 in    
Wind  
Wind Speed 1 mph (NNW)    
Max Wind Speed 7 mph    
Max Gust Speed 8 mph    
Visibility 8 miles    
Events Snow    
T = Trace of Precipitation, MM = Missing Value Source: NWS Daily Summary

Daily Weather History Graph

Daily Weather History Graph

Search for Another Location

Airport or City:

Trip Planner

Search our weather history database for the weather conditions in past years. The results will help you decide how hot, cold, wet, or windy it might be!

Date:

Astronomy

Dec. 29, 2012 Rise Set
Actual Time 7:28 AM PST 4:41 PM PST
Civil Twilight 6:56 AM PST 5:12 PM PST
Nautical Twilight 6:22 AM PST 5:47 PM PST
Astronomical Twilight 5:48 AM PST 6:21 PM PST
Moon 6:20 PM PST (12/29) 8:03 AM PST (12/29)
Length of Visible Light 10h 15m
Length of Day
9h 12m
Full, 98% of the Moon is Illuminated
Dec 29
Full
Jan 4
Last Quarter
Jan 11
New
Jan 18
First Quarter
Jan 26
Full

Hourly Weather History & Observations

Time (PST) Temp. Windchill Dew Point Humidity Pressure Visibility Wind Dir Wind Speed Gust Speed Precip Events Conditions
12:55 AM 24.1 °F 17.0 °F 21.9 °F 91% 30.11 in 9.0 mi East 5.8 mph - N/A   Overcast
1:55 AM 25.0 °F 19.3 °F 21.9 °F 88% 30.10 in 10.0 mi ENE 4.6 mph - N/A   Overcast
2:55 AM 25.0 °F - 21.9 °F 88% 30.12 in 10.0 mi Calm Calm - N/A   Overcast
4:55 AM 24.1 °F - 21.0 °F 88% 30.10 in 10.0 mi Calm Calm - N/A   Overcast
5:55 AM 24.1 °F - 21.0 °F 88% 30.11 in 10.0 mi Calm Calm - N/A   Overcast
6:55 AM 23.0 °F - 19.9 °F 88% 30.10 in 10.0 mi Calm Calm - N/A   Overcast
7:55 AM 23.0 °F - 19.9 °F 88% 30.11 in 8.0 mi Calm Calm - N/A   Overcast
8:55 AM 25.0 °F - 21.0 °F 85% 30.12 in 5.0 mi Calm Calm - N/A   Overcast
9:55 AM 26.1 °F - 21.9 °F 84% 30.12 in 7.0 mi Calm Calm - N/A   Overcast
10:46 AM 28.4 °F - 23.0 °F 80% 30.04 in 2.5 mi Calm Calm - 0.00 in Snow Light Snow
10:55 AM 28.0 °F - 23.0 °F 81% 30.12 in 3.0 mi Calm Calm - 0.00 in Snow Light Snow
11:55 AM 30.0 °F - 24.1 °F 79% 30.08 in 7.0 mi Calm Calm - 0.00 in   Overcast
12:55 PM 28.9 °F - 25.0 °F 85% 30.06 in 9.0 mi Calm Calm - 0.00 in   Overcast
1:55 PM 28.9 °F - 25.0 °F 85% 30.06 in 10.0 mi Calm Calm - N/A   Overcast
2:55 PM 30.0 °F - 25.0 °F 82% 30.05 in 8.0 mi Calm Calm - 0.00 in Snow Light Snow
3:17 PM 30.2 °F - 26.6 °F 86% 29.98 in 10.0 mi Calm Calm - 0.00 in   Overcast
3:55 PM 28.9 °F - 25.0 °F 85% 30.06 in 10.0 mi Calm Calm - 0.00 in   Overcast
4:55 PM 28.9 °F - 25.0 °F 85% 30.03 in 10.0 mi Calm Calm - N/A   Overcast
5:55 PM 28.0 °F - 26.1 °F 92% 30.05 in 10.0 mi Calm Calm - N/A   Overcast
6:02 PM 28.4 °F - 24.8 °F 86% 29.98 in 10.0 mi Calm Calm - N/A   Overcast
6:55 PM 28.0 °F - 24.1 °F 85% 30.07 in 10.0 mi Calm Calm - N/A   Overcast
7:55 PM 27.0 °F 23.0 °F 24.1 °F 89% 30.07 in 10.0 mi WSW 3.5 mph - N/A   Overcast
8:55 PM 26.1 °F 20.5 °F 23.0 °F 88% 30.07 in 10.0 mi West 4.6 mph - N/A   Overcast
9:55 PM 26.1 °F - 23.0 °F 88% 30.08 in 10.0 mi Calm Calm - N/A   Unknown
10:55 PM 25.0 °F - 23.0 °F 92% 30.07 in 9.0 mi Calm Calm - 0.00 in   Overcast
11:29 PM 24.8 °F - 23.0 °F 93% 30.00 in 2.0 mi Calm Calm - 0.00 in Snow Light Snow
11:43 PM 24.8 °F - 23.0 °F 93% 30.00 in 3.0 mi Calm Calm - 0.00 in Snow Light Snow
11:55 PM 25.0 °F - 23.0 °F 92% 30.07 in 2.0 mi Calm Calm - 0.00 in Snow Light Snow